Millinocket, ME

1:05 PM EDT on April 30, 2017 (GMT -0400)
Millinocket Municipal

Weather History for KMLT - June, 2013

Change the Weather History Date:

Sunday, June 30, 2013

  Actual Average Record
Temperature  
Mean Temperature 74 °F 67 °F  
Max Temperature 82 °F 77 °F 95 °F (1931)
Min Temperature 65 °F 57 °F 41 °F (1936)
Degree Days  
Heating Degree Days 0 1  
Month to date heating degree days 101 115  
Since 1 June heating degree days 101 116  
Since 1 July heating degree days 7703 8406  
Cooling Degree Days 9 3  
Month to date cooling degree days 61 49  
Year to date cooling degree days 69 55  
Since 1 June cooling degree days 61 49  
Growing Degree Days 23 (Base 50)    
Moisture  
Dew Point 65 °F    
Average Humidity 76    
Maximum Humidity 100    
Minimum Humidity 51    
Precipitation  
Precipitation 0.17 in 0.14 in 2.81 in (2006)
Month to date precipitation 5.71 4.07  
Year to date precipitation 16.87 19.14  
Snow  
Snow 0.00 in - - ()
Month to date snowfall 0.0  
Since 1 June snowfall 0.0  
Snow Depth 0.00 in    
Sea Level Pressure  
Sea Level Pressure 29.79 in    
Wind  
Wind Speed 1 mph (SSW)    
Max Wind Speed 8 mph    
Max Gust Speed 14 mph    
Visibility 7 miles    
Events Rain , Thunderstorm    
T = Trace of Precipitation, MM = Missing Value Source: NWS Daily Summary

Daily Weather History Graph

Daily Weather History Graph

Search for Another Location

Airport or City:

Trip Planner

Search our weather history database for the weather conditions in past years. The results will help you decide how hot, cold, wet, or windy it might be!

Date:

Astronomy

Jun. 30, 2013 Rise Set
Actual Time 4:48 AM EDT 8:27 PM EDT
Civil Twilight 4:10 AM EDT 9:05 PM EDT
Nautical Twilight 3:20 AM EDT 9:56 PM EDT
Astronomical Twilight 2:11 AM EDT 11:04 PM EDT
Moon 12:01 AM EDT 1:25 PM EDT
Length of Visible Light 16h 54m
Length of Day
15h 38m
Last Quarter, 45% of the Moon is Illuminated
Jun 30
Last Quarter
Jul 8
New
Jul 15
First Quarter
Jul 22
Full
Jul 29
Last Quarter

Hourly Weather History & Observations

Time (EDT) Temp. Heat Index Dew Point Humidity Pressure Visibility Wind Dir Wind Speed Gust Speed Precip Events Conditions
12:40 AM 66.2 °F - 64.4 °F 94% 29.68 in 7.0 mi Calm Calm - N/A   Overcast
12:45 AM 66.2 °F - 64.4 °F 94% 29.68 in 7.0 mi Variable 4.6 mph - N/A   Overcast
12:53 AM 66.9 °F - 64.9 °F 93% 29.69 in 6.0 mi SSE 3.5 mph - N/A   Overcast
1:08 AM 66.2 °F - 64.4 °F 94% 29.67 in 1.8 mi SSE 4.6 mph - N/A   Overcast
1:19 AM 66.2 °F - 64.4 °F 94% 29.68 in 1.2 mi Calm Calm - N/A   Overcast
1:28 AM 66.2 °F - 64.4 °F 94% 29.68 in 1.8 mi Calm Calm - N/A   Overcast
1:39 AM 66.2 °F - 64.4 °F 94% 29.68 in 2.0 mi South 4.6 mph - N/A   Overcast
1:53 AM 66.0 °F - 64.9 °F 96% 29.70 in 2.0 mi Variable 3.5 mph - N/A   Overcast
2:03 AM 66.2 °F - 64.4 °F 94% 29.69 in 1.5 mi Variable 4.6 mph - N/A   Overcast
2:37 AM 64.4 °F - 64.4 °F 100% 29.69 in 2.5 mi Variable 3.5 mph - N/A   Overcast
2:45 AM 64.4 °F - 64.4 °F 100% 29.69 in 4.0 mi Calm Calm - N/A   Overcast
2:53 AM 64.9 °F - 64.0 °F 97% 29.70 in 4.0 mi Calm Calm - N/A   Overcast
3:53 AM 64.9 °F - 64.0 °F 97% 29.71 in 4.0 mi Calm Calm - N/A   Overcast
4:53 AM 64.9 °F - 64.0 °F 97% 29.73 in 4.0 mi Calm Calm - N/A   Overcast
5:53 AM 66.0 °F - 64.0 °F 93% 29.75 in 4.0 mi Calm Calm - N/A   Overcast
6:16 AM 66.2 °F - 64.4 °F 94% 29.74 in 6.0 mi Calm Calm - N/A   Overcast
6:53 AM 66.9 °F - 64.0 °F 90% 29.76 in 7.0 mi Calm Calm - N/A   Overcast
7:53 AM 68.0 °F - 64.0 °F 87% 29.78 in 10.0 mi Calm Calm - N/A   Overcast
8:53 AM 69.1 °F - 64.9 °F 87% 29.80 in 10.0 mi SSE 3.5 mph - N/A   Overcast
9:53 AM 71.1 °F - 64.9 °F 81% 29.81 in 10.0 mi Variable 3.5 mph - N/A   Overcast
10:18 AM 71.6 °F - 64.4 °F 78% 29.81 in 10.0 mi Variable 4.6 mph - 0.01 in   Overcast
10:53 AM 73.9 °F - 66.0 °F 76% 29.82 in 10.0 mi SSE 3.5 mph - 0.01 in   Mostly Cloudy
11:16 AM 77.0 °F - 66.2 °F 69% 29.80 in 10.0 mi Variable 5.8 mph - N/A   Mostly Cloudy
11:41 AM 75.2 °F - 64.4 °F 69% 29.80 in 10.0 mi Variable 3.5 mph - N/A   Mostly Cloudy
11:53 AM 75.9 °F - 64.0 °F 67% 29.81 in 10.0 mi Calm Calm - N/A   Mostly Cloudy
12:01 PM 77.0 °F - 64.4 °F 65% 29.80 in 10.0 mi WNW 3.5 mph - N/A   Mostly Cloudy
12:53 PM 79.0 °F - 64.0 °F 60% 29.81 in 10.0 mi Calm Calm - N/A   Scattered Clouds
1:53 PM 78.1 °F - 64.0 °F 62% 29.82 in 10.0 mi WNW 4.6 mph - N/A   Overcast
2:53 PM 79.0 °F - 64.0 °F 60% 29.82 in 10.0 mi West 3.5 mph - N/A   Mostly Cloudy
3:53 PM 81.0 °F 82.2 °F 63.0 °F 54% 29.83 in 10.0 mi West 3.5 mph - N/A   Scattered Clouds
4:53 PM 79.0 °F - 66.9 °F 66% 29.84 in 10.0 mi Variable 3.5 mph - N/A   Mostly Cloudy
5:53 PM 82.0 °F 83.0 °F 62.1 °F 51% 29.85 in 10.0 mi Calm Calm - N/A   Partly Cloudy
6:53 PM 80.1 °F 81.1 °F 61.0 °F 52% 29.88 in 10.0 mi Calm Calm - N/A   Mostly Cloudy
7:53 PM 75.0 °F - 68.0 °F 79% 29.88 in 10.0 mi Calm Calm - N/A   Scattered Clouds
8:53 PM 71.1 °F - 66.9 °F 87% 29.90 in 10.0 mi Calm Calm - 0.00 in   Overcast
9:53 PM 69.1 °F - 66.9 °F 93% 29.93 in 7.0 mi Calm Calm - 0.02 in   Mostly Cloudy
10:15 PM 69.8 °F - 66.2 °F 88% 29.93 in 5.0 mi Calm Calm - 0.01 in Rain , Thunderstorm Light Thunderstorms and Rain
10:51 PM 68.0 °F - 66.2 °F 94% 29.93 in 4.0 mi Variable 3.5 mph - 0.07 in Rain Rain
10:53 PM 68.0 °F - 66.0 °F 93% 29.95 in 4.0 mi SSE 5.8 mph - 0.07 in Rain Rain
11:53 PM 66.9 °F - 66.0 °F 97% 29.95 in 5.0 mi Calm Calm - 0.07 in Rain Light Rain